When you browse on this site, cookies collect data to enhance your experience and personalize the content and advertising you see.
Visit our Privacy Policy to learn more. By continuing to use the site, you agree to this use of cookies and data.
  • In Lithuania
  • List of Countries
  • For 7 days
  • Water Temperature
  • Weather Map
  • Weather Widgets
  • user-avatar
    Login

    Hourly Weather Ivanovka-Seleznevka

    Today, 1 June, Monday

    Time Temperature Precipitation Wind Pressure Humidity
    00:00 +8°C° 0.1 mm 4 mps 740 mmHg 94%
    01:00 +8°C° 0.5 mm 4 mps 740 mmHg 95%
    02:00 +8°C° 0.5 mm 4 mps 740 mmHg 95%
    03:00 +9°C° 0 mm 3 mps 740 mmHg 96%
    04:00 +9°C° 0.5 mm 3 mps 740 mmHg 96%
    05:00 +9°C° 0.5 mm 3 mps 739 mmHg 96%
    06:00 +9°C° 0.5 mm 3 mps 739 mmHg 97%
    07:00 +9°C° 0.2 mm 3 mps 740 mmHg 96%
    08:00 +9°C° 0.2 mm 3 mps 740 mmHg 96%
    09:00 +10°C° 0.2 mm 4 mps 741 mmHg 96%
    10:00 +10°C° 0.1 mm 4 mps 741 mmHg 94%
    11:00 +11°C° 0.1 mm 4 mps 741 mmHg 92%
    12:00 +12°C° 0.1 mm 5 mps 741 mmHg 90%
    13:00 +12°C° 0.2 mm 5 mps 741 mmHg 90%
    14:00 +12°C° 0.2 mm 5 mps 742 mmHg 89%
    15:00 +11°C° 0.2 mm 6 mps 742 mmHg 89%
    16:00 +11°C° 0.1 mm 6 mps 742 mmHg 89%
    17:00 +11°C° 0.1 mm 6 mps 741 mmHg 88%
    18:00 +11°C° 0.1 mm 6 mps 741 mmHg 88%
    19:00 +11°C° 0.1 mm 6 mps 741 mmHg 88%
    20:00 +11°C° 0.1 mm 6 mps 742 mmHg 89%
    21:00 +11°C° 0.1 mm 6 mps 742 mmHg 89%
    22:00 +10°C° 0.5 mm 6 mps 742 mmHg 91%
    23:00 +10°C° 0.5 mm 7 mps 741 mmHg 93%

    Tomorrow, 2 June, Tuesday

    Time Temperature Precipitation Wind Pressure Humidity
    00:00 +10°C° 0.5 mm 7 mps 741 mmHg 95%
    01:00 +10°C° 0.4 mm 7 mps 741 mmHg 95%
    02:00 +10°C° 0.4 mm 6 mps 741 mmHg 96%
    03:00 +10°C° 0.4 mm 6 mps 741 mmHg 96%
    04:00 +10°C° 0.1 mm 6 mps 741 mmHg 97%
    05:00 +10°C° 0.1 mm 5 mps 741 mmHg 97%
    06:00 +10°C° 0.1 mm 5 mps 740 mmHg 97%
    07:00 +12°C° 0.1 mm 5 mps 741 mmHg 96%
    08:00 +13°C° 0.1 mm 5 mps 741 mmHg 94%
    09:00 +14°C° 0.1 mm 5 mps 741 mmHg 92%
    10:00 +15°C° 0.5 mm 5 mps 741 mmHg 89%
    11:00 +16°C° 0.5 mm 5 mps 741 mmHg 85%
    12:00 +17°C° 0.5 mm 5 mps 741 mmHg 81%
    13:00 +18°C° 1.3 mm 4 mps 741 mmHg 80%
    14:00 +19°C° 1.3 mm 4 mps 741 mmHg 79%
    15:00 +19°C° 1.3 mm 4 mps 741 mmHg 77%
    16:00 +19°C° 2.1 mm 4 mps 741 mmHg 79%
    17:00 +18°C° 2.1 mm 4 mps 741 mmHg 81%
    18:00 +18°C° 2.1 mm 4 mps 741 mmHg 83%
    19:00 +17°C° 1 mm 3 mps 741 mmHg 86%
    20:00 +16°C° 1 mm 3 mps 741 mmHg 88%
    21:00 +13°C° 1 mm 3 mps 741 mmHg 90%
    22:00 +13°C° 0.2 mm 3 mps 741 mmHg 92%
    23:00 +13°C° 0.2 mm 3 mps 741 mmHg 94%

    Day after tomorrow, 3 June, Wednesday

    Time Temperature Precipitation Wind Pressure Humidity
    00:00 +12°C° 0.2 mm 4 mps 741 mmHg 96%
    01:00 +12°C° 0 mm 4 mps 741 mmHg 97%
    02:00 +13°C° 0 mm 4 mps 741 mmHg 97%
    03:00 +13°C° 0 mm 4 mps 741 mmHg 97%
    04:00 +13°C° 0 mm 4 mps 741 mmHg 97%
    05:00 +13°C° 0 mm 4 mps 741 mmHg 96%
    06:00 +13°C° 0 mm 3 mps 741 mmHg 96%
    07:00 +13°C° 0.1 mm 3 mps 741 mmHg 96%
    08:00 +14°C° 0.1 mm 3 mps 741 mmHg 95%
    09:00 +14°C° 0.1 mm 3 mps 741 mmHg 95%
    10:00 +14°C° 0 mm 3 mps 741 mmHg 94%
    11:00 +16°C° 0 mm 3 mps 741 mmHg 93%
    12:00 +15°C° 0 mm 4 mps 741 mmHg 91%
    13:00 +17°C° 0.7 mm 4 mps 741 mmHg 90%
    14:00 +17°C° 0.7 mm 5 mps 741 mmHg 89%
    15:00 +17°C° 0.7 mm 5 mps 740 mmHg 88%
    16:00 +17°C° 1.8 mm 5 mps 740 mmHg 89%
    17:00 +17°C° 1.8 mm 4 mps 740 mmHg 90%
    18:00 +17°C° 1.8 mm 4 mps 739 mmHg 91%
    19:00 +17°C° 0.8 mm 3 mps 739 mmHg 92%
    20:00 +16°C° 0.8 mm 3 mps 739 mmHg 94%
    21:00 +14°C° 0.8 mm 3 mps 739 mmHg 95%
    22:00 +14°C° 0.2 mm 3 mps 739 mmHg 96%
    23:00 +15°C° 0.2 mm 2 mps 738 mmHg 96%

    4 June, Thursday

    Time Temperature Precipitation Wind Pressure Humidity
    00:00 +14°C° 0.2 mm 2 mps 738 mmHg 97%
    01:00 +14°C° 0 mm 2 mps 738 mmHg 97%
    02:00 +13°C° 0 mm 2 mps 738 mmHg 96%
    03:00 +13°C° 0 mm 2 mps 738 mmHg 96%
    04:00 +13°C° 0 mm 2 mps 738 mmHg 96%
    05:00 +14°C° 0 mm 2 mps 738 mmHg 96%
    06:00 +14°C° 0 mm 2 mps 737 mmHg 96%
    07:00 +15°C° 0 mm 2 mps 738 mmHg 91%
    08:00 +16°C° 0 mm 3 mps 738 mmHg 87%
    09:00 +18°C° 0 mm 3 mps 738 mmHg 83%
    10:00 +18°C° 0.3 mm 3 mps 738 mmHg 81%
    11:00 +19°C° 0.3 mm 3 mps 738 mmHg 78%
    12:00 +20°C° 0.3 mm 3 mps 738 mmHg 76%
    13:00 +20°C° 0.5 mm 4 mps 738 mmHg 76%
    14:00 +20°C° 0.5 mm 5 mps 738 mmHg 77%
    15:00 +20°C° 0.5 mm 5 mps 738 mmHg 77%
    16:00 +20°C° 0.2 mm 5 mps 739 mmHg 78%
    17:00 +19°C° 0.2 mm 5 mps 739 mmHg 78%
    18:00 +17°C° 0.2 mm 5 mps 739 mmHg 79%
    19:00 +17°C° 0 mm 4 mps 740 mmHg 83%
    20:00 +14°C° 0 mm 3 mps 740 mmHg 86%
    21:00 +14°C° 0 mm 2 mps 740 mmHg 89%
    22:00 +14°C° 0 mm 2 mps 741 mmHg 90%
    23:00 +13°C° 0 mm 2 mps 741 mmHg 91%

    5 June, Friday

    Time Temperature Precipitation Wind Pressure Humidity
    00:00 +13°C° 0 mm 2 mps 741 mmHg 93%
    01:00 +12°C° 0 mm 2 mps 741 mmHg 93%
    02:00 +12°C° 0 mm 2 mps 741 mmHg 93%
    03:00 +12°C° 0 mm 2 mps 741 mmHg 94%
    04:00 +12°C° 0 mm 2 mps 742 mmHg 93%
    05:00 +13°C° 0 mm 2 mps 742 mmHg 92%
    06:00 +13°C° 0 mm 2 mps 742 mmHg 91%
    07:00 +14°C° 0.1 mm 3 mps 742 mmHg 87%
    08:00 +16°C° 0.1 mm 3 mps 742 mmHg 83%
    09:00 +18°C° 0.1 mm 3 mps 742 mmHg 79%
    10:00 +18°C° 0.5 mm 3 mps 742 mmHg 76%
    11:00 +19°C° 0.5 mm 4 mps 742 mmHg 74%
    12:00 +20°C° 0.5 mm 4 mps 742 mmHg 71%
    13:00 +20°C° 0.6 mm 4 mps 742 mmHg 71%
    14:00 +20°C° 0.6 mm 4 mps 742 mmHg 72%
    15:00 +20°C° 0.6 mm 5 mps 742 mmHg 72%
    16:00 +20°C° 0.9 mm 4 mps 742 mmHg 75%
    17:00 +20°C° 0.9 mm 4 mps 742 mmHg 78%
    18:00 +19°C° 0.9 mm 3 mps 742 mmHg 80%
    19:00 +18°C° 0.3 mm 3 mps 742 mmHg 84%
    20:00 +16°C° 0.3 mm 3 mps 742 mmHg 87%
    21:00 +15°C° 0.3 mm 2 mps 742 mmHg 90%
    22:00 +14°C° 0 mm 2 mps 742 mmHg 91%
    23:00 +13°C° 0 mm 2 mps 742 mmHg 93%

    6 June, Saturday

    Time Temperature Precipitation Wind Pressure Humidity
    00:00 +13°C° 0 mm 2 mps 742 mmHg 95%
    01:00 +12°C° 0 mm 2 mps 742 mmHg 94%
    02:00 +12°C° 0 mm 2 mps 742 mmHg 94%
    03:00 +11°C° 0 mm 1 mps 742 mmHg 93%
    04:00 +12°C° 0 mm 1 mps 742 mmHg 94%
    05:00 +12°C° 0 mm 2 mps 742 mmHg 94%
    06:00 +13°C° 0 mm 2 mps 742 mmHg 94%
    07:00 +14°C° 0 mm 2 mps 743 mmHg 90%
    08:00 +15°C° 0 mm 2 mps 743 mmHg 86%
    09:00 +17°C° 0 mm 3 mps 743 mmHg 82%
    10:00 +18°C° 0.1 mm 3 mps 743 mmHg 79%
    11:00 +19°C° 0.1 mm 3 mps 743 mmHg 75%
    12:00 +19°C° 0.1 mm 3 mps 743 mmHg 72%
    13:00 +20°C° 0.1 mm 3 mps 743 mmHg 71%
    14:00 +20°C° 0.1 mm 3 mps 742 mmHg 71%
    15:00 +21°C° 0.1 mm 2 mps 742 mmHg 70%
    16:00 +21°C° 0.1 mm 2 mps 742 mmHg 71%
    17:00 +21°C° 0.1 mm 2 mps 742 mmHg 73%
    18:00 +21°C° 0.1 mm 2 mps 742 mmHg 74%
    19:00 +19°C° 0 mm 2 mps 742 mmHg 79%
    20:00 +18°C° 0 mm 2 mps 742 mmHg 84%
    21:00 +16°C° 0 mm 2 mps 742 mmHg 90%
    22:00 +16°C° 0 mm 2 mps 741 mmHg 91%
    23:00 +15°C° 0 mm 2 mps 741 mmHg 92%
    Show more